Voltar ao catálogo

STARLINK-31538

AtivoComunicaçõesVLEO
NORAD 59525·PAYLOAD·🇺🇸 United States

Lançado Apr 17, 2024 de Cape Canaveral Space Force Station

Loading…

Próximas Passagens (próximas 24 horas)

TLE

AtualizadoSource: CelesTrak SupGP

Época: Sep 15, 2026, 02:24 UTC

1 59525C 24073Q   26258.10048611  .00043121  00000+0  15618-2 0  2587
2 59525  43.0010 328.1373 0001465 266.7419 168.9482 15.27556592    10

Acompanhe STARLINK-31538 em tempo real com AllMySat

Download on the App Store